Regional Weather Roundup
Issued by NWS

Home | Current Version | Previous Version | Graphics & Text | Print | Product List | Glossary Off
Versions: 1 2 3 4 5 6 7 8 9 10 11 12 13 14 15 16 17 18 19 20 21 22 23 24 25 26 27 28 29 30 31 32 33 34 35 36 37 38 39 40 41 42 43 44 45 46 47 48 49 50

000
ASUS43 KMKX 200259
RWRWI

WISCONSIN REGIONAL WEATHER ROUNDUP
NATIONAL WEATHER SERVICE MILWAUKEE/SULLIVAN WI
900 PM CST SUN NOV 19 2017

NOTE: "FAIR" INDICATES FEW OR NO CLOUDS BELOW 12,000 FEET WITH NO
SIGNIFICANT WEATHER AND/OR OBSTRUCTIONS TO VISIBILITY.

WIZ001-002-006>008-014>016-023>028-200400-
NORTHWEST WISCONSIN

CITY           SKY/WX    TMP DP  RH WIND       PRES   REMARKS
SUPERIOR ARPT  CLOUDY    18  17  95 CALM      29.82F
ASHLAND        CLOUDY    20  15  81 SE5       29.84F WCI  13
HAYWARD        PTCLDY    26  16  65 S5        29.81F WCI  20
SIREN          CLEAR     27  19  71 SE3       29.81F
CUMBERLAND     CLEAR     25  18  74 SE3       29.83S
RICE LAKE      CLEAR     26  18  73 E5        29.85F WCI  20
CHETEK         CLEAR     24  17  74 E5        29.85F WCI  19
LADYSMITH      CLEAR     26  18  72 SE3       29.86F
EAU CLAIRE     NOT AVBL
MENOMONIE      CLEAR     25  20  80 E5        29.86S WCI  19
NEW RICHMOND   CLEAR     29  23  79 S8        29.83F WCI  21
OSCEOLA        CLEAR     29  23  77 S5        29.85F WCI  24
$$

WIZ003>005-009-010-017-018-200400-
NORTH CENTRAL WISCONSIN

CITY           SKY/WX    TMP DP  RH WIND       PRES   REMARKS
MANITOWISH WTR CLOUDY    19  16  91 S3        29.82F
ARBOR VITAE    CLOUDY    22  16  77 CALM      29.82F
WOODRUFF       CLOUDY    22  16  77 CALM      29.82F
RHINELANDER    CLEAR    N/A N/A N/A CALM      29.83F
EAGLE RIVER    CLEAR     17  17  99 CALM      29.82F
LAND O LAKES   CLOUDY    19  17  89 CALM      29.84F
PHILLIPS       CLEAR     23  16  74 CALM      29.82F
TOMAHAWK       CLOUDY    20  15  80 CALM      29.85S
MEDFORD        PTCLDY    22  17  79 S5        29.85S WCI  16
MERRILL        CLEAR     25  16  70 CALM      29.86S
$$

WIZ029-030-035-036-043>047-200400-
CENTRAL WISCONSIN

CITY           SKY/WX    TMP DP  RH WIND       PRES   REMARKS
WAUSAU         CLEAR     26  16  65 CALM      29.87S
MOSINEE        MOCLDY    21  16  79 S7        29.89S WCI  13
MARSHFIELD     CLEAR     24  15  68 SW5       29.87S WCI  18
STEVENS POINT  CLEAR     22  14  71 SW3       29.90F
WAUPACA        PTCLDY    26  17  68 S5        29.93F WCI  20
WAUTOMA        CLOUDY    25  17  72 S3        29.94S
WISC RAPIDS    CLEAR     24  17  74 S3        29.91F
CAMP DOUGLAS   CLEAR    N/A N/A N/A SW3       29.93S
$$

WIZ011>013-019>022-031-037>040-048>050-200400-
NORTHEAST WISCONSIN

CITY           SKY/WX    TMP DP  RH WIND       PRES   REMARKS
ANTIGO         CLEAR     22  16  77 CALM      29.86S
SHAWANO        MOCLDY    30  16  56 CALM      29.91S
OCONTO         CLOUDY    28  14  57 CALM      29.92S
STURGEON BAY   CLOUDY    30  18  60 SW7       29.93R WCI  23
GREEN BAY      CLOUDY    30  20  66 SW5       29.93S WCI  25
MANITOWOC      CLOUDY    30  20  66 SW5       29.96S WCI  25
APPLETON       MOCLDY    27  16  63 SW9       29.92S WCI  17
CLINTONVILLE   CLEAR     27  16  63 SW6       29.91F WCI  20
OSHKOSH        CLEAR     26  19  74 S7        29.94S WCI  18
$$

WIZ032>034-041-042-053>061-200400-
SOUTHWEST WISCONSIN

CITY           SKY/WX    TMP DP  RH WIND       PRES   REMARKS
LA CROSSE      CLEAR     34  24  67 E12       29.92F WCI  25
SPARTA         CLEAR     31  22  70 S3        29.93S
VIROQUA        CLEAR     30  25  81 SW10      29.93S WCI  21
BOSCOBEL       CLEAR     29  21  72 SW6       29.98F WCI  23
PRAIRIE DU CHI CLOUDY    34  22  61 CALM      29.98F
PLATTEVILLE    CLOUDY    29  24  84 S10       30.00S WCI  19
$$

WIZ056-057-062-063-064-067-068-200400-
SOUTH CENTRAL WISCONSIN

CITY           SKY/WX    TMP DP  RH WIND       PRES   REMARKS
REEDSBURG      CLEAR     29  19  67 SW5       29.94F WCI  24
BARABOO/DELLS  CLEAR     29  20  67 SW7       29.94F WCI  22
LONE ROCK      NOT AVBL
MINERAL POINT  CLEAR     30  25  80 S7        29.98F WCI  23
MADISON        PTCLDY    31  20  63 SW10G20   29.97F WCI  22
MIDDLETON      CLEAR     31  21  65 SW12G18   29.98F WCI  22
WATERTOWN      PTCLDY    27  21  78 SW8       29.98F WCI  18
MONROE         CLEAR     28  21  74 SW15      29.99F WCI  17
JANESVILLE     CLEAR     27  21  80 SW6       30.01S WCI  20
$$

WIZ051-052-058>065-066-070>072-200400-
SOUTHEAST WISCONSIN

CITY           SKY/WX    TMP DP  RH WIND       PRES   REMARKS
MILWAUKEE      PTCLDY    31  19  61 SW13      30.00F WCI  21
WAUKESHA       CLEAR     27  18  69 SW8       30.00F WCI  18
MILWAUKEE/TIMM CLEAR     28  16  59 SW7       30.00F WCI  21
RACINE         CLEAR     30  20  66 SW12G23   30.03S WCI  20
BURLINGTON     CLEAR     30  25  80 SW9       30.02S WCI  22
KENOSHA        CLEAR     29  19  66 SW13      30.03S WCI  19
FOND DU LAC    PTCLDY    28  18  66 SW7       29.96S WCI  21
SHEBOYGAN      CLOUDY    29  20  69 SW9       29.96S WCI  20
WEST BEND      CLEAR     28  19  69 SW6       29.97S WCI  22
JUNEAU         CLOUDY    26  20  75 SW10      29.98S WCI  17
$$

LSZ147-162-200400-
LAKE SUPERIOR

STATION/POSITION TIME  TEMP    WIND        PRES    WAVE
                       AIR SEA DIR/SP/G            HT/PER
                 (UTC) (F)     (DEG/KT/KT) (MB)    (FT/S)
DEVILS ISLAND    0200   29     210/  9/ 12 1011.6F
SAXON HARBOR     0230   22     200/  1/  2 1010.5F
$$

LMZ867-665-643>646-200400-
LAKE MICHIGAN

STATION/POSITION TIME  TEMP    WIND        PRES    WAVE
                       AIR SEA DIR/SP/G            HT/PER
                 (UTC) (F)     (DEG/KT/KT) (MB)    (FT/S)
N MID LAKE BUOY  0150   32 48  260/ 19/ 23 1013.4F   3/ 4
NORTHPORT PIER   0240   31     280/  7/ 13 1012.9S
KEWAUNEE LAKESHO 0230   30     250/  8/ 10 1013.0F
SHEBOYGAN LAKESH 0200   30     230/  9/ 10 1015.5F
PORT WASHINGTON  0240   30     250/  6/ 10 1016.3S
MILWAUKEE LAKESH 0230   32     250/ 15/ 18   N/A
S MID LAKE BUOY  0150   36 49  300/ 19/ 23 1017.2R   5/ 5
KENOSHA   LAKESH 0200   31     250/ 14/ 19 1016.9
$$

TC  - TEMPERATURE IN CELSIUS
VSB - VISIBILITY IN STATUTE MILES
WCI - WIND CHILL INDEX
HX  - HEAT INDEX





USA.gov is the U.S. government's official web portal to all federal, state and local government web resources and services.